カタログに戻る

FLOCK 4Q 28

運用中科学SSO
NORAD 58280·PAYLOAD·🇺🇸 United States

打ち上げ Nov 11, 2023 から Vandenberg Space Force Base

Loading…

次のパス (今後24時間)

TLE

最新Source: Space-Track

元期: Sep 14, 2026, 05:05 UTC

1 58280U 23174AA  26257.21236159  .00078731  00000-0  92687-3 0  9992
2 58280  97.3854 351.6665 0004165 175.5487 184.5808 15.61140021159602

AllMySatでFLOCK 4Q 28をリアルタイム追跡

Download on the App Store